FW5346 Weather Reports


Display with metric or nautical units.
time (UTC)temp
F
wind
direction
speed
MPH
gust
MPH
rain 1hr
in
rain 24hr
in
rain mn
in
humidity
%
barometer
mb
20260508161607 40 294 6.0 8.0 0.00 0.86 0.01 94 1002.7
20260508160058 40 311 7.0 9.0 0.00 0.86 0.01 95 1002.6
20260508154559 41 334 5.0 9.0 0.00 0.86 0.01 95 1002.8
20260508153056 40 343 5.0 9.0 0.00 0.86 0.01 95 1002.7
20260508151605 40 327 4.0 6.0 0.00 0.86 0.01 95 1002.7
20260508150054 40 321 6.0 9.0 0.00 0.86 0.01 95 1002.9
20260508144553 40 312 6.0 9.0 0.00 0.86 0.01 95 1002.9
20260508143054 41 330 3.0 5.0 0.00 0.86 0.01 95 1002.9
20260508141553 40 329 3.0 6.0 0.00 0.86 0.01 95 1003.0
20260508140052 40 310 4.0 6.0 0.00 0.86 0.01 95 1003.5
20260508134556 40 296 2.0 5.0 0.00 0.86 0.01 95 1003.4
20260508133102 40 298 3.0 5.0 0.00 0.86 0.01 95 1003.3
20260508131549 41 319 2.0 5.0 0.00 0.86 0.01 95 1003.0
20260508130048 41 289 3.0 6.0 0.00 0.86 0.01 95 1002.8
20260508124548 41 304 5.0 6.0 0.00 0.86 0.01 95 1002.6
20260508123054 42 300 3.0 5.0 0.00 0.86 0.01 95 1002.6
20260508121552 41 338 1.0 4.0 0.00 0.86 0.01 95 1002.8
20260508120045 41 332 2.0 4.0 0.00 0.86 0.01 95 1002.9
20260508114543 41 332 0.0 3.0 0.00 0.86 0.01 95 1002.9
20260508113049 40 332 2.0 3.0 0.00 0.86 0.01 95 1002.8
20260508111547 40 332 2.0 4.0 0.00 0.86 0.01 95 1002.9
20260508110047 41 343 1.0 3.0 0.00 0.86 0.01 95 1003.1
20260508104542 40 343 1.0 2.0 0.00 0.86 0.01 95 1003.1
20260508103042 41 343 1.0 2.0 0.00 0.86 0.01 95 1003.2
20260508101540 41 343 0.0 2.0 0.00 0.86 0.01 95 1003.2
20260508100039 40 343 0.0 3.0 0.00 0.86 0.01 95 1003.0
20260508094544 40 343 1.0 3.0 0.00 0.86 0.01 95 1002.9
20260508093042 40 269 1.0 3.0 0.00 0.86 0.01 95 1002.8
20260508091536 40 269 2.0 4.0 0.00 0.86 0.01 95 1002.8
20260508090036 40 269 0.0 2.0 0.00 0.86 0.01 95 1002.5
20260508084532 41 269 2.0 4.0 0.00 0.86 0.01 94 1002.2
20260508083030 42 256 3.0 6.0 0.01 0.86 0.01 95 1002.2
20260508081533 42 331 0.0 0.0 0.01 0.86 0.01 95 1001.8
20260508080028 42 331 0.0 1.0 0.01 0.86 0.01 95 1002.0
20260508074527 42 331 1.0 3.0 0.01 0.86 0.01 94 1002.0
20260508073026 42 331 1.0 3.0 0.00 0.85 0.00 95 1002.3
20260508071529 42 331 3.0 4.0 0.00 0.85 0.00 94 1002.3
20260508070025 43 331 0.0 1.0 0.00 0.85 0.00 94 1002.4
20260508064524 43 331 2.0 4.0 0.00 0.85 0.00 94 1002.4
20260508063022 44 17 2.0 4.0 0.00 0.85 0.00 95 1002.2
20260508061525 43 20 2.0 4.0 0.00 0.85 0.00 95 1002.3
20260508060019 43 19 3.0 6.0 0.00 0.85 0.00 94 1002.5
20260508054521 43 357 5.0 6.0 0.00 0.85 0.00 94 1002.6
20260508053020 43 359 3.0 5.0 0.00 0.85 0.00 94 1002.9
20260508051527 43 358 5.0 8.0 0.00 0.85 0.00 94 1003.0
20260508050015 42 360 4.0 8.0 0.00 0.85 0.00 94 1002.8
20260508044513 43 11 1.0 4.0 0.00 0.85 0.00 94 1002.8
20260508043017 43 13 1.0 4.0 0.00 0.85 0.00 94 1002.5
20260508041511 43 314 4.0 8.0 0.00 0.85 0.00 93 1003.0
20260508040013 42 88 0.0 6.0 0.00 0.85 0.00 94 1002.9
20260508034509 42 274 0.0 2.0 0.00 0.85 0.00 93 1002.9
20260508033007 43 275 4.0 7.0 0.00 0.85 0.00 92 1003.0
20260508031601 46 88 1.0 4.0 0.00 0.85 0.00 92 1002.8
20260508024558 48 88 0.0 3.0 0.00 0.85 0.85 94 1002.7
20260508023056 47 88 3.0 6.0 0.01 0.85 0.85 94 1002.7
20260508021556 45 190 0.0 0.0 0.02 0.85 0.85 92 1003.1
20260508021506 45 190 0.0 0.0 0.02 0.85 0.85 93 1003.1
20260508020051 46 190 0.0 0.0 0.03 0.85 0.85 93 1003.1
20260508014551 46 200 0.0 0.0 0.04 0.85 0.85 93 1003.4
20260508013051 46 200 0.0 0.0 0.05 0.84 0.84 92 1003.4
20260508011550 46 200 0.0 3.0 0.06 0.83 0.83 92 1003.3
20260508010052 47 199 1.0 2.0 0.08 0.82 0.82 92 1003.3
20260508004552 47 199 1.0 3.0 0.10 0.81 0.81 92 1003.3
20260508003048 47 199 2.0 4.0 0.12 0.80 0.80 92 1003.4
20260508001547 47 199 3.0 5.0 0.11 0.77 0.77 91 1003.4
20260508000046 47 207 3.0 7.0 0.08 0.74 0.74 91 1003.5
20260507234556 46 208 7.0 12.0 0.05 0.71 0.71 91 1003.2
20260507233044 48 257 6.0 12.0 0.02 0.68 0.68 88 1002.8
20260507231548 48 229 8.0 13.0 0.00 0.66 0.66 87 1002.6
20260507230036 55 230 13.0 18.0 0.00 0.66 0.66 80 1002.1
20260507224537 57 169 4.0 12.0 0.00 0.66 0.66 84 1001.5
20260507223035 56 141 8.0 16.0 0.00 0.66 0.66 84 1001.4
20260507221535 56 138 8.0 15.0 0.00 0.66 0.66 84 1001.5
20260507220033 56 150 15.0 23.0 0.00 0.66 0.66 84 1001.4
20260507214533 57 147 12.0 21.0 0.00 0.66 0.66 84 1001.4
20260507213032 56 148 12.0 19.0 0.00 0.66 0.66 84 1001.0
20260507211533 56 152 13.0 22.0 0.00 0.66 0.66 85 1001.0
20260507210033 56 161 15.0 24.0 0.00 0.66 0.66 85 1001.3
20260507204531 56 129 18.0 23.0 0.02 0.66 0.66 83 1001.3
20260507203031 58 158 16.0 21.0 0.09 0.66 0.66 83 1001.1
20260507201537 57 106 12.0 18.0 0.16 0.66 0.66 85 1000.6
20260507200043 56 131 12.0 24.0 0.19 0.66 0.66 85 1000.2
20260507194527 55 118 18.0 26.0 0.20 0.65 0.65 88 1001.2
20260507193023 55 134 19.0 25.0 0.17 0.56 0.56 89 1002.1
20260507191520 55 176 9.0 16.0 0.16 0.50 0.50 88 1003.5
20260507190018 55 156 10.0 19.0 0.20 0.47 0.47 88 1003.2
20260507184517 55 125 12.0 22.0 0.30 0.44 0.44 88 1003.6
20260507183030 55 154 15.0 26.0 0.38 0.39 0.39 88 1003.9
20260507181514 55 171 12.0 17.0 0.34 0.34 0.34 89 1004.3
20260507180012 55 185 8.0 18.0 0.27 0.27 0.27 89 1004.4
20260507174512 55 168 12.0 21.0 0.13 0.13 0.13 88 1004.8
20260507173007 56 201 12.0 26.0 0.01 0.01 0.01 85 1004.3
20260507171505 57 189 18.0 32.0 0.00 0.00 0.00 84 1003.3
20260507170003 58 188 12.0 29.0 0.00 0.00 0.00 82 1003.4
20260507164502 58 171 17.0 32.0 0.00 0.00 0.00 80 1003.6
20260507163001 59 203 22.0 40.0 0.00 0.00 0.00 78 1003.8